Back to catalog

STARLINK-30855

AliveCommunicationsVLEO
NORAD 58222·PAYLOAD·🇺🇸 United States

Launched Nov 3, 2023 from Cape Canaveral Space Force Station

Loading…

Next Passes (next 24 hours)

TLE

FreshSource: CelesTrak SupGP

Epoch: Sep 15, 2026, 03:19 UTC

1 58222C 23170S   26258.13868056  .00014782  00000+0  53538-3 0  2588
2 58222  43.0017 204.5964 0001198 268.9679 313.0134 15.27574134    17

Track STARLINK-30855 in real time with AllMySat

Download on the App Store